Nome, AK

5:17 AM AKDT on April 25, 2017 (GMT -0800)
Nome

Weather History for PAOM - November, 2012

Change the Weather History Date:

Sunday, November 11, 2012

  Actual Average Record
Temperature  
Mean Temperature 13 °F 18 °F  
Max Temperature 18 °F 24 °F 39 °F (1981)
Min Temperature 7 °F 12 °F -13 °F (1908)
Degree Days  
Heating Degree Days 52 47  
Month to date heating degree days 502 496  
Since 1 July heating degree days 3214 3146  
Cooling Degree Days 0 0  
Month to date cooling degree days 0 0  
Year to date cooling degree days 0 3  
Moisture  
Dew Point 5 °F    
Average Humidity 0    
Maximum Humidity 0    
Minimum Humidity 0    
Precipitation  
Precipitation 0.00 in 0.04 in 0.50 in (1920)
Month to date precipitation 0.02 0.48  
Year to date precipitation 18.13 14.99  
Snow  
Snow 0.00 in 0.40 in 5.00 in (1990)
Month to date snowfall 0.2 4.2  
Since 1 July snowfall 2.6 9.4  
Since 1 September snowfall 2.6 9.4  
Snow Depth 1.00 in    
Sea Level Pressure  
Sea Level Pressure 29.91 in    
Wind  
Wind Speed 0 mph (NNE)    
Max Wind Speed 7 mph    
Max Gust Speed 8 mph    
Visibility 10 miles    
Events      
T = Trace of Precipitation, MM = Missing Value Source: NWS Daily Summary

Daily Weather History Graph

Daily Weather History Graph

Search for Another Location

Airport or City:

Trip Planner

Search our weather history database for the weather conditions in past years. The results will help you decide how hot, cold, wet, or windy it might be!

Date:

Astronomy

Nov. 11, 2012 Rise Set
Actual Time 10:23 AM AKST 5:07 PM AKST
Civil Twilight 9:23 AM AKST 6:07 PM AKST
Nautical Twilight 8:22 AM AKST 7:07 PM AKST
Astronomical Twilight 7:26 AM AKST 8:04 PM AKST
Moon 7:08 AM AKST (11/11) 4:14 PM AKST (11/11)
Length of Visible Light 8h 43m
Length of Day
6h 44m
Waning Crescent, 6% of the Moon is Illuminated
Nov 11
Waning Crescent
Nov 13
New
Nov 20
First Quarter
Nov 28
Full
Dec 6
Last Quarter

Hourly Weather History & Observations

Time (AKST) Temp. Windchill Dew Point Humidity Pressure Visibility Wind Dir Wind Speed Gust Speed Precip Events Conditions
12:53 AM 15.1 °F - 3.9 °F 61% 29.80 in 10.0 mi Calm Calm - N/A   Clear
1:53 AM 16.0 °F 7.4 °F 3.9 °F 59% 29.82 in 10.0 mi NNW 5.8 mph - N/A   Clear
3:53 AM 10.0 °F - 3.9 °F 76% 29.82 in 10.0 mi Calm Calm - N/A   Clear
4:53 AM 10.0 °F - 3.9 °F 76% 29.83 in 10.0 mi Calm Calm - N/A   Clear
5:53 AM 10.0 °F - 3.9 °F 76% 29.82 in 10.0 mi Calm Calm - N/A   Clear
6:53 AM 10.0 °F 0.4 °F 1.9 °F 70% 29.84 in 10.0 mi North 5.8 mph - N/A   Clear
7:53 AM 10.9 °F 4.7 °F 1.9 °F 67% 29.85 in 10.0 mi North 3.5 mph - N/A   Clear
8:53 AM 10.0 °F - 3.0 °F 73% 29.87 in 10.0 mi Calm Calm - N/A   Clear
9:53 AM 9.0 °F - 1.9 °F 73% 29.87 in 10.0 mi Calm Calm - N/A   Partly Cloudy
10:53 AM 9.0 °F - 1.9 °F 73% 29.88 in 10.0 mi Calm Calm - N/A   Scattered Clouds
11:53 AM 10.9 °F - 3.0 °F 70% 29.89 in 10.0 mi Calm Calm - N/A   Scattered Clouds
12:53 PM 14.0 °F - 5.0 °F 67% 29.91 in 10.0 mi Calm Calm - N/A   Mostly Cloudy
1:53 PM 16.0 °F - 7.0 °F 68% 29.92 in 10.0 mi Calm Calm - N/A   Mostly Cloudy
2:53 PM 16.0 °F 10.4 °F 9.0 °F 74% 29.94 in 10.0 mi NE 3.5 mph - N/A   Mostly Cloudy
3:53 PM 18.0 °F - 10.0 °F 71% 29.94 in 10.0 mi Calm Calm - N/A   Mostly Cloudy
4:53 PM 16.0 °F - 8.1 °F 71% 29.94 in 10.0 mi Calm Calm - N/A   Mostly Cloudy
5:53 PM 12.0 °F - 7.0 °F 80% 29.96 in 10.0 mi Calm Calm - N/A   Mostly Cloudy
6:53 PM 10.0 °F - 7.0 °F 87% 29.99 in 10.0 mi Calm Calm - N/A   Mostly Cloudy
7:53 PM 12.0 °F - 7.0 °F 80% 29.99 in 10.0 mi Calm Calm - N/A   Mostly Cloudy
8:53 PM 10.9 °F - 8.1 °F 88% 30.01 in 10.0 mi Calm Calm - N/A   Mostly Cloudy
9:53 PM 10.0 °F 3.6 °F 6.1 °F 84% 30.04 in 10.0 mi NNE 3.5 mph - N/A   Scattered Clouds
10:53 PM 10.0 °F - 7.0 °F 87% 30.04 in 10.0 mi Calm Calm - N/A   Clear
11:53 PM 10.0 °F - 6.1 °F 84% 30.06 in 10.0 mi Calm Calm - N/A   Scattered Clouds